Retour au catalogue

UNISAT 2

ActifScienceLEO
NORAD 27608·PAYLOAD·🇮🇹 Italy

Lancé Dec 20, 2002 depuis Baikonur Cosmodrome

Loading…

Prochains Passages (prochaines 24 heures)

TLE

FraisSource: Space-Track

Époque: Sep 14, 2026, 00:10 UTC

1 27608U 02058D   26257.00760632  .00000469  00000-0  72156-4 0  9998
2 27608  64.5505 106.0698 0056436 238.4679 121.0909 14.84433155279977

Suivez UNISAT 2 en temps réel avec AllMySat

Download on the App Store